Starlink 4681

operational
NORAD ID: 53594 Int'l Des: 2022-104 Owner: SPXS Country: US Constellation: starlink
LEOCIRCULAR

关于 Starlink 4681

正在加载描述...

实时位置

正在加载3D地球...

即将过境

高度历史

Altitude vs Time

uPlot chart will show altitude changes over time

两行轨道根数

1 53594U 22104G 25349.95180132 .00002169 00000-0 15424-3 0 9994
2 53594 53.2172 260.0110 0000770 95.1741 264.9339 15.08851734183447
Epoch: Dec 15, 2025 • Age: 15 hours

当前状态

高度 553.1 km
速度 7.58 km/s
星下点 -39.72°S, 177.16°E
发射日期 Aug 28, 2022
运行时间 3.3 years
类型 internet

技术详情

分类 Payload
质量 300.00 kg
干质量 290.00 kg
总质量 300.00 kg
长度 0.20 m
直径 2.80 m
跨度 9.00 m
形状 Box + pan
制造商 SPXS
平台类型 Starlink
阶段状态 In Orbit
所有者/国家 SPXS/US

大型星座

Loading constellations...